Date,TemperatureHighF,TemperatureAvgF,TemperatureLowF,DewpointHighF,DewpointAvgF,DewpointLowF,HumidityHigh,HumidityAvg,HumidityLow,PressureMaxIn,PressureMinIn,WindSpeedMaxMPH,WindSpeedAvgMPH,GustSpeedMaxMPH,PrecipitationSumIn
2013-12-1,51.0,44.3,37.0,49.0,42.3,35.0,99,93,87,0.00,40.00,2,1,0,0.00
2013-12-2,61.0,50.0,43.0,47.0,43.6,36.0,99,81,40,0.00,40.00,4,2,0,0.00
2013-12-3,66.0,50.7,40.0,49.0,46.1,40.0,100,87,41,0.00,40.00,4,2,0,0.00
2013-12-4,46.0,40.1,30.0,44.0,35.0,21.0,99,82,68,0.00,40.00,17,9,0,0.00
2013-12-5,30.0,24.6,21.0,20.0,12.3,9.0,78,60,51,0.00,40.00,18,13,0,0.00
2013-12-6,24.0,19.5,16.0,16.0,10.2,0.0,86,69,43,0.00,40.00,13,10,0,0.00
2013-12-7,20.0,15.1,10.0,6.0,-0.1,-99.9,62,53,46,0.00,40.00,9,7,0,0.00
2013-12-8,28.0,24.3,20.0,23.0,18.7,8.0,94,80,57,0.00,40.00,5,3,0,0.00
2013-12-9,26.0,23.1,19.0,20.0,14.2,7.0,82,68,49,0.00,40.00,11,8,0,0.00
2013-12-10,37.0,23.2,8.0,14.0,10.6,4.0,85,61,36,0.00,40.00,9,3,0,0.02
2013-12-11,35.0,27.4,19.0,19.0,15.8,13.0,87,63,40,0.00,40.00,12,5,0,0.01
2013-12-12,41.0,28.0,13.0,23.0,16.8,8.0,84,65,40,0.00,40.00,7,3,0,0.00
2013-12-13,42.0,37.7,34.0,38.0,31.7,24.0,99,79,60,0.00,40.00,9,4,0,0.52
2013-12-14,38.0,33.8,26.0,38.0,27.1,-99.9,99,80,59,0.00,40.00,18,9,0,0.45
2013-12-15,56.0,30.6,18.0,27.0,20.3,16.0,91,72,25,0.00,40.00,4,2,0,0.00
2013-12-16,55.0,41.4,32.0,30.0,24.9,22.0,77,53,28,0.00,40.00,4,1,0,0.00
2013-12-17,54.0,35.7,30.0,29.0,27.2,20.0,87,73,26,0.00,40.00,6,2,0,0.00
2013-12-18,62.0,42.5,28.0,37.0,27.8,24.0,90,62,28,0.00,40.00,6,3,0,0.00
2013-12-19,63.0,57.1,52.0,53.0,45.8,39.0,77,66,53,0.00,40.00,8,6,0,0.00
2013-12-20,60.0,37.5,29.0,53.0,29.9,18.0,86,74,63,0.00,40.00,16,9,0,0.00
2013-12-21,29.0,29.0,29.0,26.0,26.0,26.0,88,88,88,0.00,40.00,3,3,0,0.00
2013-12-24,36.0,31.0,18.0,32.0,26.5,14.0,87,84,77,0.00,40.00,3,1,0,0.10
2013-12-25,37.0,30.0,24.0,32.0,27.8,22.0,99,91,76,0.00,40.00,7,3,0,0.10
2013-12-26,51.0,33.0,20.0,32.0,24.3,17.0,97,75,32,0.00,40.00,4,2,0,0.29
2013-12-27,57.0,35.0,25.0,28.0,24.7,22.0,90,70,25,0.00,40.00,4,1,0,0.03
2013-12-28,58.0,40.4,29.0,32.0,25.7,-99.9,86,61,30,0.00,40.00,6,2,0,0.00
2013-12-29,46.0,30.7,24.0,33.0,19.5,5.0,87,64,43,0.00,40.00,19,10,0,0.00
2013-12-30,38.0,23.5,14.0,18.0,6.6,0.0,76,50,27,0.00,40.00,7,3,0,0.00
2013-12-31,52.0,32.1,16.0,20.0,16.0,12.0,84,58,20,0.00,40.00,6,3,0,0.00